Miami Beach, Florida, United States (33109)
Lat: 25.79N, Lon: 80.13W
Wx Zone: FLZ173
Local Info
Past Weather Observations for Sunday, August 31, 2014

NOTE: This archive is for the closest National Weather Service station to Miami Beach. Information may differ from the station used for current weather conditions.

Click here for Long-term Archive

Time Weather Temperature Dewpoint Humidity Pressure Winds Precip Visibility
23:53
Mostly Cloudy
84°F / 29°C 73°F / 23°C 70% 30.12 in
(1020 mb)
E 9.2 mph
(E 15 kph)
- 10SM
22:53
Partly Cloudy
84°F / 29°C 75°F / 24°C 74% 30.09 in
(1019 mb)
ESE 11.5 mph
(ESE 19 kph)
- 10SM
21:53
Partly Cloudy
86°F / 30°C 75°F / 24°C 70% 30.09 in
(1019 mb)
ESE 10.4 mph
(ESE 17 kph)
- 10SM
20:53
Mostly Cloudy
86°F / 30°C 75°F / 24°C 70% 30.09 in
(1019 mb)
ESE 9.2 mph
(ESE 15 kph)
- 10SM
19:53
Partly Cloudy
86°F / 30°C 75°F / 24°C 70% 30.09 in
(1019 mb)
E 13.8 mph
(E 22 kph)
- 10SM
18:53
Partly Cloudy
Cumulonimbus Clouds Observed
86°F / 30°C 73°F / 23°C 66% 30.06 in
(1018 mb)
E 12.7 mph
(E 20 kph)
- 10SM
17:53
Partly Cloudy
88°F / 31°C 72°F / 22°C 59% 30.06 in
(1018 mb)
ESE 13.8 mph
(ESE 22 kph)
- 10SM
16:53
Partly Cloudy
90°F / 32°C 70°F / 21°C 52% 30.04 in
(1017 mb)
ESE 13.8 mph
(ESE 22 kph)
- 10SM
15:53
Partly Cloudy
90°F / 32°C 72°F / 22°C 55% 30.04 in
(1017 mb)
ESE 16.1 mph
(ESE 26 kph)
0.00 in
(0.00 mm)
10SM
14:53
Mostly Cloudy
91°F / 33°C 73°F / 23°C 56% 30.06 in
(1018 mb)
E 15 mph
(E 24 kph)
- 10SM
13:53
Partly Cloudy
91°F / 33°C 75°F / 24°C 59% 30.06 in
(1018 mb)
E 16.1 mph
(E 26 kph)
- 10SM
12:53
Partly Cloudy
91°F / 33°C 73°F / 23°C 56% 30.09 in
(1019 mb)
SE 13.8 mph
(SE 22 kph)
- 10SM
11:53
Partly Cloudy
90°F / 32°C 73°F / 23°C 59% 30.12 in
(1020 mb)
ESE 15 mph
(ESE 24 kph)
- 10SM
10:53
Partly Cloudy
91°F / 33°C 73°F / 23°C 56% 30.12 in
(1020 mb)
E 15 mph
(E 24 kph)
- 10SM
09:53
Partly Cloudy
90°F / 32°C 73°F / 23°C 59% 30.12 in
(1020 mb)
E 16.1 mph
(E 26 kph)
- 10SM
08:53
Mostly Cloudy
90°F / 32°C 75°F / 24°C 63% 30.09 in
(1019 mb)
ESE 13.8 mph
(ESE 22 kph)
- 10SM
07:53
Mostly Cloudy
88°F / 31°C 75°F / 24°C 66% 30.09 in
(1019 mb)
E 11.5 mph
(E 19 kph)
- 10SM
06:53
Mostly Cloudy
84°F / 29°C 75°F / 24°C 74% 30.09 in
(1019 mb)
E 9.2 mph
(E 15 kph)
- 10SM
05:53
Mostly Cloudy
82°F / 28°C 73°F / 23°C 74% 30.09 in
(1019 mb)
SE 8.1 mph
(SE 13 kph)
- 10SM
04:53
Partly Cloudy
82°F / 28°C 73°F / 23°C 74% 30.06 in
(1018 mb)
SE 8.1 mph
(SE 13 kph)
- 9SM
03:53
Partly Cloudy
84°F / 29°C 73°F / 23°C 70% 30.06 in
(1018 mb)
SE 10.4 mph
(SE 17 kph)
- 8SM
02:53
Clear
84°F / 29°C 73°F / 23°C 70% 30.06 in
(1018 mb)
SE 6.9 mph
(SE 11 kph)
- 10SM
01:53
Partly Cloudy
84°F / 29°C 75°F / 24°C 74% 30.09 in
(1019 mb)
SE 6.9 mph
(SE 11 kph)
- 10SM
00:53
Clear
84°F / 29°C 75°F / 24°C 74% 30.09 in
(1019 mb)
SE 8.1 mph
(SE 13 kph)
- 10SM
00:07
Mostly Cloudy
84°F / 29°C 77°F / 25°C 79% 30.09 in
(1019 mb)
SE 10.4 mph
(SE 17 kph)
- 10SM
Time Weather Temperature Dewpoint Humidity Pressure Winds Precip Visibility


Weather for websites

WeatherForYou.com, LLC is not responsible for any damages or problems caused by this service. Current weather conditions are obtained from the closest station including government and personal stations which may have varying degrees of accuracy. Weather forecasts are derived from the NOAA NDFD. Like all things, this site belongs to Jesus Christ... He just trusts me to maintain it. If you have any questions or comments email webmaster@weatherforyou.com

Copyright © 2014, WeatherForYou.com LLC. All rights reserved.